• In Hungary
  • List of Countries
  • For 7 days
  • Water Temperature
  • Satellite Maps
  • Weather Map
  • News
  • Weather Widgets
  • user-avatar
    Login

    Hourly Weather SanFrancisco

    Today, 17 February, Saturday

    Time Temperature Precipitation Wind Pressure Humidity
    00:00 +19°C° 0 mm 2 mps 684 mmHg 83%
    01:00 +19°C° 0 mm 2 mps 683 mmHg 83%
    02:00 +19°C° 0 mm 2 mps 683 mmHg 84%
    03:00 +18°C° 0 mm 2 mps 683 mmHg 85%
    04:00 +18°C° 0 mm 2 mps 683 mmHg 86%
    05:00 +18°C° 0 mm 2 mps 683 mmHg 86%
    06:00 +18°C° 0 mm 2 mps 683 mmHg 84%
    07:00 +19°C° 0 mm 2 mps 684 mmHg 82%
    08:00 +21°C° 0 mm 1 mps 684 mmHg 77%
    09:00 +21°C° 0 mm 2 mps 685 mmHg 70%
    10:00 +24°C° 0 mm 2 mps 685 mmHg 64%
    11:00 +26°C° 0 mm 3 mps 685 mmHg 58%
    12:00 +26°C° 0 mm 3 mps 685 mmHg 56%
    13:00 +27°C° 0 mm 3 mps 685 mmHg 54%
    14:00 +28°C° 0 mm 3 mps 684 mmHg 52%
    15:00 +27°C° 0 mm 3 mps 684 mmHg 54%
    16:00 +26°C° 0 mm 3 mps 683 mmHg 57%
    17:00 +26°C° 0 mm 3 mps 683 mmHg 59%
    18:00 +24°C° 0 mm 3 mps 683 mmHg 65%
    19:00 +22°C° 0 mm 3 mps 683 mmHg 71%
    20:00 +20°C° 0 mm 3 mps 683 mmHg 78%
    21:00 +20°C° 0.1 mm 3 mps 683 mmHg 79%
    22:00 +20°C° 0.1 mm 3 mps 683 mmHg 81%
    23:00 +19°C° 0.1 mm 3 mps 684 mmHg 83%

    Tomorrow, 18 February, Sunday

    Time Temperature Precipitation Wind Pressure Humidity
    00:00 +19°C° 0.1 mm 3 mps 683 mmHg 84%
    01:00 +19°C° 0.1 mm 3 mps 683 mmHg 84%
    02:00 +19°C° 0.1 mm 3 mps 683 mmHg 84%
    03:00 +18°C° 0.1 mm 3 mps 683 mmHg 85%
    04:00 +18°C° 0.1 mm 2 mps 683 mmHg 86%
    05:00 +18°C° 0.1 mm 2 mps 683 mmHg 86%
    06:00 +18°C° 0 mm 3 mps 683 mmHg 84%
    07:00 +18°C° 0 mm 3 mps 683 mmHg 82%
    08:00 +19°C° 0 mm 3 mps 684 mmHg 80%
    09:00 +21°C° 0 mm 3 mps 684 mmHg 71%
    10:00 +22°C° 0 mm 3 mps 685 mmHg 62%
    11:00 +25°C° 0 mm 3 mps 685 mmHg 53%
    12:00 +26°C° 0 mm 3 mps 685 mmHg 48%
    13:00 +27°C° 0 mm 3 mps 684 mmHg 43%
    14:00 +29°C° 0 mm 3 mps 684 mmHg 38%
    15:00 +28°C° 0 mm 3 mps 683 mmHg 42%
    16:00 +27°C° 0 mm 3 mps 682 mmHg 45%
    17:00 +26°C° 0 mm 4 mps 682 mmHg 49%
    18:00 +24°C° 0.1 mm 3 mps 682 mmHg 58%
    19:00 +22°C° 0.1 mm 3 mps 682 mmHg 68%
    20:00 +20°C° 0.1 mm 3 mps 682 mmHg 77%
    21:00 +20°C° 0.1 mm 3 mps 682 mmHg 79%
    22:00 +19°C° 0.1 mm 3 mps 683 mmHg 80%
    23:00 +19°C° 0.1 mm 3 mps 683 mmHg 82%

    Day after tomorrow, 19 February, Monday

    Time Temperature Precipitation Wind Pressure Humidity
    00:00 +19°C° 0.1 mm 3 mps 683 mmHg 82%
    01:00 +19°C° 0.1 mm 3 mps 683 mmHg 83%
    02:00 +18°C° 0.1 mm 3 mps 682 mmHg 83%
    03:00 +18°C° 0 mm 2 mps 682 mmHg 84%
    04:00 +18°C° 0 mm 2 mps 682 mmHg 84%
    05:00 +17°C° 0 mm 2 mps 682 mmHg 85%
    06:00 +18°C° 0 mm 2 mps 683 mmHg 82%
    07:00 +18°C° 0 mm 2 mps 683 mmHg 80%
    08:00 +19°C° 0 mm 2 mps 684 mmHg 77%
    09:00 +20°C° 0 mm 3 mps 684 mmHg 70%
    10:00 +22°C° 0 mm 3 mps 685 mmHg 62%
    11:00 +25°C° 0 mm 3 mps 685 mmHg 55%
    12:00 +25°C° 0 mm 4 mps 685 mmHg 53%
    13:00 +26°C° 0 mm 4 mps 684 mmHg 52%
    14:00 +27°C° 0 mm 4 mps 683 mmHg 50%
    15:00 +26°C° 0.1 mm 4 mps 683 mmHg 56%
    16:00 +25°C° 0.1 mm 4 mps 682 mmHg 61%
    17:00 +23°C° 0.1 mm 4 mps 681 mmHg 67%
    18:00 +21°C° 0.1 mm 3 mps 682 mmHg 71%
    19:00 +20°C° 0.1 mm 3 mps 682 mmHg 75%
    20:00 +19°C° 0.1 mm 3 mps 682 mmHg 80%
    21:00 +19°C° 0.1 mm 3 mps 682 mmHg 80%
    22:00 +19°C° 0.1 mm 3 mps 683 mmHg 81%
    23:00 +19°C° 0.1 mm 3 mps 683 mmHg 82%

    20 February, Tuesday

    Time Temperature Precipitation Wind Pressure Humidity
    00:00 +19°C° 0.2 mm 3 mps 683 mmHg 82%
    01:00 +19°C° 0.2 mm 3 mps 683 mmHg 83%
    02:00 +19°C° 0.2 mm 3 mps 682 mmHg 84%
    03:00 +18°C° 0.1 mm 2 mps 682 mmHg 84%
    04:00 +18°C° 0.1 mm 2 mps 682 mmHg 85%
    05:00 +18°C° 0.1 mm 2 mps 682 mmHg 86%
    06:00 +18°C° 0 mm 2 mps 683 mmHg 84%
    07:00 +19°C° 0 mm 2 mps 683 mmHg 82%
    08:00 +19°C° 0 mm 2 mps 684 mmHg 81%
    09:00 +20°C° 0.1 mm 3 mps 684 mmHg 75%
    10:00 +21°C° 0.1 mm 3 mps 685 mmHg 69%
    11:00 +24°C° 0.1 mm 3 mps 685 mmHg 63%
    12:00 +24°C° 0 mm 3 mps 685 mmHg 61%
    13:00 +25°C° 0 mm 3 mps 684 mmHg 59%
    14:00 +25°C° 0 mm 3 mps 684 mmHg 57%
    15:00 +25°C° 0.1 mm 3 mps 683 mmHg 59%
    16:00 +24°C° 0.1 mm 3 mps 683 mmHg 61%
    17:00 +24°C° 0.1 mm 3 mps 682 mmHg 63%
    18:00 +22°C° 0 mm 3 mps 683 mmHg 69%
    19:00 +21°C° 0 mm 3 mps 683 mmHg 74%
    20:00 +19°C° 0 mm 3 mps 683 mmHg 79%
    21:00 +19°C° 0.1 mm 3 mps 683 mmHg 80%
    22:00 +19°C° 0.1 mm 3 mps 684 mmHg 82%
    23:00 +19°C° 0.1 mm 3 mps 684 mmHg 83%

    21 February, Wednesday

    Time Temperature Precipitation Wind Pressure Humidity
    00:00 +18°C° 0.1 mm 3 mps 684 mmHg 84%
    01:00 +18°C° 0.1 mm 2 mps 683 mmHg 85%
    02:00 +18°C° 0.1 mm 2 mps 683 mmHg 86%
    03:00 +18°C° 0.1 mm 2 mps 683 mmHg 86%
    04:00 +18°C° 0.1 mm 2 mps 683 mmHg 87%
    05:00 +18°C° 0.1 mm 2 mps 683 mmHg 88%
    06:00 +18°C° 0.1 mm 2 mps 683 mmHg 85%
    07:00 +18°C° 0.1 mm 2 mps 684 mmHg 83%
    08:00 +19°C° 0.1 mm 2 mps 684 mmHg 80%
    09:00 +20°C° 0 mm 3 mps 685 mmHg 72%
    10:00 +22°C° 0 mm 3 mps 686 mmHg 65%
    11:00 +25°C° 0 mm 3 mps 686 mmHg 57%
    12:00 +26°C° 0 mm 3 mps 685 mmHg 54%
    13:00 +26°C° 0 mm 3 mps 685 mmHg 51%
    14:00 +27°C° 0 mm 3 mps 684 mmHg 48%
    15:00 +26°C° 0 mm 3 mps 684 mmHg 51%
    16:00 +26°C° 0 mm 3 mps 683 mmHg 54%
    17:00 +25°C° 0 mm 4 mps 683 mmHg 57%
    18:00 +24°C° 0 mm 3 mps 683 mmHg 63%
    19:00 +21°C° 0 mm 3 mps 683 mmHg 70%
    20:00 +20°C° 0 mm 3 mps 683 mmHg 77%
    21:00 +19°C° 0 mm 3 mps 683 mmHg 78%
    22:00 +19°C° 0 mm 3 mps 683 mmHg 80%
    23:00 +19°C° 0 mm 2 mps 684 mmHg 82%

    22 February, Thursday

    Time Temperature Precipitation Wind Pressure Humidity
    00:00 +19°C° 0 mm 2 mps 683 mmHg 83%
    01:00 +19°C° 0 mm 2 mps 683 mmHg 84%
    02:00 +18°C° 0 mm 2 mps 683 mmHg 85%
    03:00 +18°C° 0 mm 2 mps 683 mmHg 86%
    04:00 +18°C° 0 mm 2 mps 683 mmHg 87%
    05:00 +18°C° 0 mm 2 mps 683 mmHg 88%
    06:00 +18°C° 0 mm 2 mps 683 mmHg 86%
    07:00 +18°C° 0 mm 2 mps 684 mmHg 83%
    08:00 +19°C° 0 mm 2 mps 684 mmHg 81%
    09:00 +20°C° 0.1 mm 2 mps 685 mmHg 73%
    10:00 +23°C° 0.1 mm 2 mps 685 mmHg 66%
    11:00 +25°C° 0.1 mm 3 mps 686 mmHg 59%
    12:00 +25°C° 0.1 mm 3 mps 685 mmHg 56%
    13:00 +26°C° 0.1 mm 3 mps 685 mmHg 53%
    14:00 +27°C° 0.1 mm 3 mps 684 mmHg 50%
    15:00 +27°C° 0.1 mm 3 mps 683 mmHg 52%
    16:00 +26°C° 0.1 mm 3 mps 683 mmHg 55%
    17:00 +25°C° 0.1 mm 3 mps 682 mmHg 57%
    18:00 +24°C° 0 mm 3 mps 682 mmHg 64%
    19:00 +21°C° 0 mm 3 mps 682 mmHg 70%
    20:00 +20°C° 0 mm 3 mps 682 mmHg 77%
    21:00 +20°C° 0 mm 3 mps 683 mmHg 79%
    22:00 +19°C° 0 mm 2 mps 683 mmHg 80%
    23:00 +19°C° 0 mm 2 mps 683 mmHg 82%
    Show more